STARLINK-32426, 61681

Orbit data source: Space-Track

STARLINK-32426, 61681 is a payload satellite owned by SpaceX/Seattle (US) in LEO that was launched on Sat, 26 Oct 2024 UTC via an FALCON 9 launch vehicle from the Air Force Eastern Test Range (AFETR). Payload-class satellites include a variety of spacecraft equipped with specific instruments for various scientific and technological missions. These include communications satellites like Starlink; space stations such as the ISS; scientific satellites like the Hubble; Earth observation satellites from companies like Planet Labs, Umbra, and HawkEye 360; GPS; miniature CubeSats for education and research; and military/defense satellites.

Loading next visibility...
Identifier
61681, 2024-193W
Orbit
LEO
Country
Flag of USUS
Related business
Manufacturer
SpaceX/Seattle
Mission
Operational Commercial Communications
Bus & Motor
STARLINK V2M, Unknown motor
Mass
730 kg wet, ~700 kg dry
Launch date (UTC)
2024-10-26 (2 years ago)
Launch vehicle
FALCON 9
Launch site
Air Force Eastern Test Range (AFETR)
Object type
Payload
Rocket body
Debris
Shape & HBR
Box + 2 Pan, 17.7 m
Radar Cross Section
33.884 m², Large (>1 m²)

Expand to show TLE details & history
Last TLE update: 11 hours ago

TLE from 11 hours ago
0 STARLINK-32426
1 61681U 24193W   26125.45677845  .00000082  00000-0  14879-4 0  9996
2 61681  53.1601 187.6293 0000907  62.5361 297.5732 15.30193987 85212
Epoch: 2026-05-05T10:57Z
TLE epoch observation values (Epoch: 2026-05-05T10:57:45.658Z)
Latitude
0.00001°
Longitude
159.85771°
Altitude
475.845 km
Speed
7.629 km/s
True Right ascension
12h 30m 31s
True Declination
0° 00' 00"
Sunlit
Object was in full shadow at epoch
Visualization orbit readout
Latitude
Unknown
Longitude
Unknown
Altitude
Unknown
Speed
Unknown
Apparent Right ascension
Unknown
Apparent Declination
Unknown
Sunlit
N/A
Visualization observer readout
Local Sidereal Time
06:10:53
Azimuth
Unknown
Elevation
Unknown
Doppler factor
Unknown
Orbital elements
Apogee altitude
476.111 km
Perigee altitude
474.868 km
Semi-major axis
6,853.626 km
Eccentricity
0.00009
Inclination
53.1601°
RAAN
187.6293°
Arg. of periapsis
62.5361°
True anomaly
297.56399°
Mean anomaly
297.5732°
Eccentric anomaly
297.56859°
Mean motion
3.82527 °/min
Orbital period
94.11 mins
BSTAR
0.000014879
Loading maneuver chart data...
Computing Atmospheric mass density...
Loading historical data...
Loading historical data...
Loading historical data...
Loading historical data...
Loading historical data...
Loading historical data...
Loading historical data...

Documentation

Showing up to 5 results
|